Tracking 29487 objects as of 10-Sep-2024
HD Live streaming from Space Station
objects crossing your sky now

OBJECT M

Track OBJECT M now!
10-day predictions
OBJECT M is classified as:


NORAD ID: 52743
Int'l Code: 2022-057M
Perigee: 400.5 km
Apogee: 408.8 km
Inclination: 97.6 °
Period: 92.5 minutes
Semi major axis: 6775 km
RCS: Unknown
Launch date: May 25, 2022
Source: (TBD)
Launch site: AIR FORCE EASTERN TEST RANGE (AFETR)

Uplink (MHz):
Downlink (MHz): 401.000
Beacon (MHz):
Mode: 9600bps GFSK
Call sign:
Status: Inactive


Note: This is a ROCKET BODY
Your satellite tracking list
Your tracking list is empty




NASA's NSSDC Master Catalog

Two Line Element Set (TLE):
1 52743U 22057M   24254.15904104  .00171510  00000-0  23653-2 0  9994
2 52743  97.5723  24.7587 0006146 224.6396 135.4364 15.56594054127749
Source of the keplerian elements: AFSPC